Погода в Тарифе

Испания     36°00′52″N   5°36′17″W
темп.,
°C
ветер,
м/с
пор.,
м/с
влажн.,
%
обл.,
%
осадки,
мм/ч
давл.,
гПа
погр.,
м
11 апреля, вс
вс1123:00+15з129240 0.0 101546
02:00+14зюз23909 0.0 101596
05:00+14зюз359219 0.0 1015202
08:00+14зюз359225 0.0 1015239
11:00+16зюз578442 0.1 1017649
14:00+18з68735 0.2 1017782
17:00+18з57750 0.0 1016624
20:00+17з35841 0.0 1016283
12 апреля, пн
пн1223:00+15з359390 0.0 1019158
02:00+14зюз349417 0.0 1018146
05:00+14з3493100 0.0 1018143
08:00+13з3390100 0.0 1019111
11:00+17в227470 0.0 1020269
14:00+17всв6773100 0.0 1021566
17:00+16всв81087100 0.1 1020720
20:00+15всв81190100 0.1 1021744
13 апреля, вт
вт1323:00+15в9129477 0.2 1022813
02:00+15всв10139295 0.4 1022882
05:00+15в10149099 0.2 1021955
08:00+15в111492100 0.5 10211011
11:00+15в121490100 0.3 10221025
14:00+16в12148498 0.4 1021927
17:00+16в101378100 0.0 1020926
20:00+15в101482100 0.0 1019907
14 апреля, ср
ср1423:00+15в111583100 0.0 1020887
02:00+15в111683100 0.0 1019925
05:00+15в111680100 0.0 1017952
08:00+15в111581100 0.0 1017926
11:00+14в121584100 0.5 1017937
14:00+14в121489100 1.3 1017955
17:00+14в111486100 0.4 1015982
20:00+14всв11147786 0.6 1015941
15 апреля, чт
чт1523:00+14в111580100 0.0 10151028
02:00+14в101284100 0.2 1014900
05:00+13в81194100 3.8 1013750
08:00+14в81195100 11.1 1012758
11:00+13в81096100 13.5 1013757
14:00+13в81094100 21.3 1013772
17:00+14вюв81091100 2.4 1012843
20:00+13вюв71090100 4.4 1012805